Petersburg, AK

7:33 PM AKST on November 19, 2017 (GMT -0900)
Johnson Petersburg

Weather History for PAPG - December, 2012

Change the Weather History Date:

Friday, December 7, 2012

  Actual Average Record
Temperature  
Mean Temperature 24 °F -  
Max Temperature 32 °F 35 °F 51 °F (2014)
Min Temperature 17 °F 29 °F 12 °F (2007)
Degree Days  
Heating Degree Days 40    
Moisture  
Dew Point 23 °F    
Average Humidity 90    
Maximum Humidity 93    
Minimum Humidity 75    
Precipitation  
Precipitation 0.00 in - - ()
Sea Level Pressure  
Sea Level Pressure 29.91 in    
Wind  
Wind Speed 2 mph (WSW)    
Max Wind Speed 7 mph    
Max Gust Speed -    
Visibility 9 miles    
Events      
Averages and records for this station are not official NWS values.
T = Trace of Precipitation, MM = Missing Value Source: NWS Daily Summary

Daily Weather History Graph

Daily Weather History Graph

Search for Another Location

Airport or City:

Trip Planner

Search our weather history database for the weather conditions in past years. The results will help you decide how hot, cold, wet, or windy it might be!

Date:

Astronomy

Dec. 07, 2012 Rise Set
Actual Time 8:14 AM AKST 3:12 PM AKST
Civil Twilight 7:25 AM AKST 4:00 PM AKST
Nautical Twilight 6:36 AM AKST 4:50 PM AKST
Astronomical Twilight 5:49 AM AKST 5:37 PM AKST
Moon 12:34 AM AKST (12/7) 12:14 PM AKST (12/7)
Length of Visible Light 8h 34m
Length of Day
6h 58m
Last Quarter, 37% of the Moon is Illuminated
Dec 7
Last Quarter
Dec 12
New
Dec 19
First Quarter
Dec 28
Full
Jan 4
Last Quarter

Hourly Weather History & Observations

Time (AKST) Temp. Windchill Dew Point Humidity Pressure Visibility Wind Dir Wind Speed Gust Speed Precip Events Conditions
12:16 AM 32.0 °F 27.5 °F 26.6 °F 80% 29.65 in 5.0 mi ESE 4.6 mph - N/A   Overcast
12:36 AM 32.0 °F 25.6 °F 24.8 °F 75% 29.66 in 4.0 mi SE 6.9 mph - N/A   Overcast
12:56 AM 30.2 °F 26.7 °F 24.8 °F 80% 29.67 in 3.0 mi NW 3.5 mph - N/A   Overcast
1:16 AM 30.2 °F 26.7 °F 26.6 °F 86% 29.68 in 2.5 mi WNW 3.5 mph - N/A   Overcast
1:36 AM 30.2 °F - 26.6 °F 86% 29.69 in 2.5 mi Calm Calm - N/A   Overcast
1:56 AM 30.2 °F 26.7 °F 26.6 °F 86% 29.70 in 3.0 mi West 3.5 mph - N/A   Overcast
2:16 AM 28.4 °F 23.3 °F 26.6 °F 93% 29.70 in 6.0 mi West 4.6 mph - N/A   Overcast
2:36 AM 30.2 °F - 26.6 °F 86% 29.71 in 2.5 mi Calm Calm - N/A   Overcast
2:56 AM 28.4 °F - 26.6 °F 93% 29.71 in 3.0 mi Calm Calm - N/A   Overcast
3:16 AM 28.4 °F - 26.6 °F 93% 29.72 in 3.0 mi Calm Calm - N/A   Overcast
3:36 AM 28.4 °F 24.6 °F 26.6 °F 93% 29.73 in 8.0 mi West 3.5 mph - N/A   Overcast
3:56 AM 28.4 °F 24.6 °F 26.6 °F 93% 29.74 in 2.5 mi West 3.5 mph - N/A   Overcast
4:16 AM 28.4 °F 24.6 °F 26.6 °F 93% 29.75 in 3.0 mi WSW 3.5 mph - N/A   Mostly Cloudy
4:36 AM 28.4 °F - 26.6 °F 93% 29.75 in 3.0 mi Calm Calm - N/A   Overcast
4:56 AM 28.4 °F 24.6 °F 26.6 °F 93% 29.75 in 8.0 mi SW 3.5 mph - N/A   Overcast
5:16 AM 28.4 °F 24.6 °F 26.6 °F 93% 29.76 in 5.0 mi SW 3.5 mph - N/A   Overcast
5:36 AM 28.4 °F - 26.6 °F 93% 29.76 in 8.0 mi Calm Calm - N/A   Overcast
5:56 AM 28.4 °F - 26.6 °F 93% 29.77 in 10.0 mi Calm Calm - N/A   Overcast
6:16 AM 28.4 °F - 26.6 °F 93% 29.78 in 10.0 mi Calm Calm - N/A   Overcast
6:36 AM 28.4 °F 24.6 °F 24.8 °F 86% 29.79 in 10.0 mi WSW 3.5 mph - N/A   Overcast
6:56 AM 28.4 °F 24.6 °F 26.6 °F 93% 29.79 in 10.0 mi SW 3.5 mph - N/A   Overcast
7:16 AM 28.4 °F 24.6 °F 24.8 °F 86% 29.79 in 10.0 mi West 3.5 mph - N/A   Overcast
7:36 AM 26.6 °F - 24.8 °F 93% 29.80 in 10.0 mi Calm Calm - N/A   Overcast
7:56 AM 26.6 °F - 24.8 °F 93% 29.81 in 10.0 mi Calm Calm - N/A   Mostly Cloudy
8:16 AM 26.6 °F - 24.8 °F 93% 29.82 in 10.0 mi Calm Calm - N/A   Mostly Cloudy
8:36 AM 26.6 °F - 24.8 °F 93% 29.83 in 10.0 mi Calm Calm - N/A   Mostly Cloudy
8:56 AM 26.6 °F - 23.0 °F 86% 29.84 in 10.0 mi Calm Calm - N/A   Mostly Cloudy
9:16 AM 26.6 °F 22.6 °F 24.8 °F 93% 29.85 in 10.0 mi West 3.5 mph - N/A   Mostly Cloudy
9:36 AM 26.6 °F - 24.8 °F 93% 29.86 in 10.0 mi Calm Calm - N/A   Mostly Cloudy
9:56 AM 26.6 °F 22.6 °F 23.0 °F 86% 29.87 in 10.0 mi West 3.5 mph - N/A   Mostly Cloudy
10:16 AM 26.6 °F - 24.8 °F 93% 29.88 in 10.0 mi Calm Calm - N/A   Mostly Cloudy
10:36 AM 26.6 °F 22.6 °F 24.8 °F 93% 29.89 in 10.0 mi WSW 3.5 mph - N/A   Mostly Cloudy
10:56 AM 26.6 °F - 24.8 °F 93% 29.90 in 10.0 mi Calm Calm - N/A   Mostly Cloudy
11:16 AM 28.4 °F - 24.8 °F 86% 29.91 in 10.0 mi Calm Calm - N/A   Mostly Cloudy
11:36 AM 28.4 °F - 24.8 °F 86% 29.91 in 10.0 mi Calm Calm - N/A   Mostly Cloudy
11:56 AM 28.4 °F - 24.8 °F 86% 29.92 in 10.0 mi Calm Calm - N/A   Mostly Cloudy
12:16 PM 28.4 °F 24.6 °F 24.8 °F 86% 29.92 in 10.0 mi WSW 3.5 mph - N/A   Mostly Cloudy
12:36 PM 28.4 °F 22.2 °F 24.8 °F 86% 29.94 in 10.0 mi WSW 5.8 mph - N/A   Mostly Cloudy
12:56 PM 28.4 °F 24.6 °F 24.8 °F 86% 29.94 in 10.0 mi West 3.5 mph - N/A   Mostly Cloudy
1:16 PM 26.6 °F 22.6 °F 23.0 °F 86% 29.95 in 10.0 mi West 3.5 mph - N/A   Mostly Cloudy
1:36 PM 28.4 °F 24.6 °F 24.8 °F 86% 29.95 in 10.0 mi WSW 3.5 mph - N/A   Mostly Cloudy
1:56 PM 28.4 °F 24.6 °F 24.8 °F 86% 29.96 in 10.0 mi WSW 3.5 mph - N/A   Mostly Cloudy
2:16 PM 28.4 °F - 24.8 °F 86% 29.96 in 10.0 mi Calm Calm - N/A   Mostly Cloudy
2:36 PM 26.6 °F 21.2 °F 23.0 °F 86% 29.97 in 10.0 mi WSW 4.6 mph - N/A   Mostly Cloudy
2:56 PM 26.6 °F 22.6 °F 24.8 °F 93% 29.97 in 10.0 mi WSW 3.5 mph - N/A   Mostly Cloudy
3:16 PM 26.6 °F 22.6 °F 23.0 °F 86% 29.98 in 10.0 mi WSW 3.5 mph - N/A   Mostly Cloudy
3:36 PM 24.8 °F 20.5 °F 21.2 °F 86% 29.99 in 10.0 mi SW 3.5 mph - N/A   Mostly Cloudy
3:56 PM 21.2 °F 16.4 °F 19.4 °F 93% 29.99 in 10.0 mi WSW 3.5 mph - N/A   Scattered Clouds
4:16 PM 23.0 °F 18.4 °F 21.2 °F 93% 30.00 in 10.0 mi WSW 3.5 mph - N/A   Scattered Clouds
4:36 PM 23.0 °F - 21.2 °F 93% 30.01 in 10.0 mi Calm Calm - N/A   Scattered Clouds
4:56 PM 23.0 °F - 21.2 °F 93% 30.01 in 10.0 mi Calm Calm - N/A   Scattered Clouds
5:16 PM 19.4 °F - 17.6 °F 93% 30.03 in 10.0 mi Calm Calm - N/A   Scattered Clouds
5:36 PM 21.2 °F - 19.4 °F 93% 30.03 in 10.0 mi Calm Calm - N/A   Scattered Clouds
5:56 PM 19.4 °F - 17.6 °F 93% 30.04 in 10.0 mi Calm Calm - N/A   Partly Cloudy
6:16 PM 19.4 °F - 17.6 °F 93% 30.05 in 10.0 mi Calm Calm - N/A   Partly Cloudy
6:36 PM 21.2 °F - 17.6 °F 86% 30.06 in 10.0 mi Calm Calm - N/A   Partly Cloudy
6:56 PM 19.4 °F - 17.6 °F 93% 30.06 in 10.0 mi Calm Calm - N/A   Scattered Clouds
7:16 PM 19.4 °F - 17.6 °F 93% 30.07 in 10.0 mi Calm Calm - N/A   Scattered Clouds
7:36 PM 19.4 °F - 17.6 °F 93% 30.08 in 10.0 mi Calm Calm - N/A   Scattered Clouds
7:56 PM 21.2 °F - 19.4 °F 93% 30.08 in 10.0 mi Calm Calm - N/A   Clear
8:16 PM 17.6 °F - 15.8 °F 93% 30.09 in 10.0 mi Calm Calm - N/A   Clear
8:36 PM 17.6 °F - 15.8 °F 93% 30.09 in 10.0 mi Calm Calm - N/A   Clear
8:56 PM 19.4 °F - 15.8 °F 86% 30.10 in 10.0 mi Calm Calm - N/A   Mostly Cloudy
9:16 PM 19.4 °F - 17.6 °F 93% 30.11 in 10.0 mi Calm Calm - N/A   Mostly Cloudy
9:36 PM 19.4 °F - 17.6 °F 93% 30.11 in 10.0 mi Calm Calm - N/A   Mostly Cloudy
9:56 PM 19.4 °F - 17.6 °F 93% 30.12 in 10.0 mi Calm Calm - N/A   Overcast
10:16 PM 19.4 °F - 17.6 °F 93% 30.12 in 10.0 mi Calm Calm - N/A   Overcast
10:36 PM 19.4 °F - 17.6 °F 93% 30.13 in 10.0 mi Calm Calm - N/A   Mostly Cloudy
11:16 PM 19.4 °F - 17.6 °F 93% 30.14 in 10.0 mi Calm Calm - N/A   Overcast
11:36 PM 21.2 °F - 17.6 °F 86% 30.14 in 10.0 mi Calm Calm - N/A   Overcast
11:56 PM 21.2 °F - 19.4 °F 93% 30.14 in 10.0 mi Calm Calm - N/A   Overcast